SCP
0 0 0 0 0 0 0 0 0 0 0 0 0 0 0 0 0 0 0 0 0 0 0 0 0 0 0 0 0 0 0 0 0 0 0 0 0 0 0 0 0 0 0 0 0 0 0 0 0 0 0 0 0 0
0 0 0 0 0 0 0 0 0 0 0 0 0 0 0 0 0 0 0 0 0 0 0 0 0 0 0 0 0 0 0 0 0 0 0 0 0 0 0 0 0 0 0 0 0 0 0 0 0 0 0 0 0 0
0 0 0 0 0 0 0 0 0 0 0 0 0 0 0 0 0 0 0 0 0 0 0 0 0 0 0 0 0 0 0 0 0 0 0 0 0 0 0 0 0 0 0 0 0 0 0 0 0 0 0 0 0 0
0 0 0 0 0 0 0 0 0 0 0 0 0 0 0 0 0 0 0 0 0 0 0 0 0 0 0 0 0 0 0 0 0 0 0 0 0 0 0 0 0 0 0 0 0 0 0 0 0 0 0 0 0 0
0 0 0 0 0 0 0 0 0 0 0 0 0 0 0 0 0 0 0 0 0 0 0 0 -0 0 0 0 0 0 0 0 0 0 0 0 0 0 0 0 0 0 0 0 0 0 0 0 0 0 0 0 0 0
0 0 0 0 0 0 0 0 0 0 0 0 0 -0 0 0 0 0 0 0 0 0 0 0 0 0 0 0 0 0 0 0 0 0 0 0 0 0 0 0 0 0 0 0 0 0 0 0 0 0 0 0 0 0
0 0 0 0 0 0 0 0 0 0 0 0 0 0 0 0 0 0 0 0 0 0 0 0 0 0 0 0 0 0 0 0 0 0 0 0 0 0 0 0 0 0 0 0 0 0 0 0 0 0 0 0 0 0
0 0 0 0 0 0 0 0 0 0 0 0 0 0 0 0 0 0 0 0 0 0 0 0 0 0 0 0 0 0 0 0 0 0 0 0 0 0 0 0 0 0 0 0 0 0 0 0 0 0 0 0 0 0
0 0 0 0 0 0 0 0 0 0 0 0 0 0 0 0 0 0 0 0 0 0 0 0 0 0 0 0 0 0 0 0 0 0 0 0 0 0 0 0 0 0 0 0 0 0 0 0 0 0 0 0 0 0
0 0 0 0 0 0 0 0 0 0 0 0 0 0 0 0 0 0 0 0 0 0 0 0 0 0 0 0 0 0 0 0 0 0 0 0 0 0 0 0 0 0 0 0 0 0 0 0 0 0 0 0 0 -0
0 0 0 0 0 0 0 0 0 0 0 0 0 0 0 0 0 0 0 0 0 0 0 0 0 0 0 0 0 0 0 0 0 0 0 0 0 0 0 0 0 0 0 0 0 0 0 0 0 0 0 0 -0 -0
0 0 0 0 0 0 0 0 0 0 0 0 0 0 0 0 0 0 0 0 0 0 0 0 0 0 0 0 0 0 0 0 0 0 0 0 0 0 0 0 0 0 0 0 0 -0 -0 0 0 0 -0 -0 -0 -0
0 0 0 0 0 0 0 0 0 -0 0 0 0 0 0 0 0 0 0 0 0 0 0 0 0 0 0 0 0 0 0 0 0 0 0 0 0 0 0 0 0 0 0 0 0 0 0 0 0 0 -0 -0 -0 0
0 0 0 0 0 0 0 0 0 0 0 0 0 0 0 0 0 0 0 0 0 0 0 0 0 0 0 0 0 0 0 0 0 0 0 0 0 0 0 0 0 0 0 0 0 0 0 0 0 -0 -0 0 -0 0
0 0 0 0 0 0 0 0 0 0 0 0 0 0 0 0 0 0 0 0 0 0 0 0 0 0 0 0 0 0 0 0 0 0 0 0 0 -0 0 0 0 0 0 0 0 0 -0 0 -0 -0 -0 -0 -0 0
0 0 0 0 0 0 0 0 0 0 0 0 0 0 0 0 0 0 0 0 0 0 0 0 0 0 0 0 0 0 0 0 0 0 0 0 0 0 0 0 -0 0 0 0 0 0 -0 -0 -0 -0 -0 -0 0 0
0 0 0 0 0 0 0 0 0 0 0 0 0 0 0 0 0 0 0 0 0 0 0 0 0 0 0 0 0 0 0 0 0 0 0 0 0 0 0 0 0 0 0 0 0 -0 -0 -0 -0 -0 -0 0 0 0
0 0 0 0 0 0 0 0 0 0 0 0 0 0 0 0 0 0 0 0 0 0 0 0 0 0 0 0 0 0 0 0 0 0 0 0 0 0 0 0 0 0 0 0 -0 -0 -0 -0 -0 -0 -0 0 0 0
0 0 0 0 0 0 0 0 0 0 0 0 0 0 0 0 0 0 0 0 0 0 0 0 0 0 0 0 0 0 0 0 0 0 0 0 0 0 0 0 0 0 0 0 -0 -0 -0 -0 -0 -0 0 0 0 0
0 0 0 0 0 0 0 0 0 0 0 0 0 0 0 0 0 0 0 0 0 0 0 0 0 0 0 0 0 0 0 0 0 0 0 0 0 0 0 0 0 0 0 0 -0 -0 -0 -0 -0 0 0 0 0 0
0 -0 0 0 0 0 0 0 0 0 0 0 0 0 0 0 0 0 0 0 0 0 0 0 0 0 0 0 0 0 0 0 0 0 0 0 0 0 0 0 0 0 0 0 -0 -0 -0 -0 -0 0 0 0 0 0
0 -0 0 0 0 0 0 0 0 0 0 0 0 0 0 0 0 0 0 0 0 0 0 0 0 0 0 0 0 0 0 0 0 0 0 0 0 0 0 0 0 0 0 0 -0 -0 -0 -0 -0 0 0 0 0 0
0 0 0 0 0 0 0 0 0 0 0 0 0 0 0 0 0 0 0 0 0 0 0 0 0 0 0 0 0 0 0 0 0 0 0 0 0 0 0 0 0 0 0 -0 -0 -0 -0 -0 -0 0 0 0 0 0
0 0 0 0 0 0 0 0 0 0 0 0 0 0 0 0 0 0 0 0 0 0 0 0 0 0 0 0 0 0 0 0 0 0 0 0 0 0 0 0 0 0 0 0 -0 -0 -0 -0 0 0 0 0 0 0
0 0 0 0 0 -0 0 0 0 0 0 -0 -0 0 0 0 0 0 0 0 -0 -0 -0 -0 -0 -0 -0 -0 0 0 0 0 0 0 0 0 0 0 0 0 0 0 0 0 0 0 -0 -0 0 0 0 0 0 0
0 0 0 0 0 0 0 0 0 0 0 0 0 0 0 0 0 0 0 -0 0 -0 -0 -0 -0 -0 0 0 0 0 -0 -0 0 0 0 0 0 0 0 0 0 0 0 0 0 0 -0 0 0 0 0 0 0 0
0 0 0 0 0 0 0 0 0 0 0 0 0 0 0 0 0 0 0 -0 0 0 0 0 0 0 -0 0 0 -0 -0 -0 -0 -0 0 0 0 0 0 0 0 0 0 0 0 0 0 0 0 0 0 0 0 0
0 0 0 0 0 0 0 0 0 0 -0 -0 -0 0 0 0 0 0 0 -0 -0 -0 -0 -0 -0 -0 -0 0 0 -0 -0 0 0 0 0 0 0 0 0 0 0 -0 0 0 0 0 0 0 0 0 0 0 0 0
0 0 0 0 0 0 0 0 0 -0 -0 -0 0 0 0 -0 -0 0 0 0 0 0 0 0 0 -0 -0 0 0 0 -0 -0 -0 0 0 0 0 0 0 0 0 0 0 0 -0 0 0 0 0 0 0 0 0 0
0 0 0 0 0 0 0 -0 0 0 0 0 0 0 0 0 0 0 0 -0 0 0 0 -0 0 0 0 0 0 0 0 0 0 -0 -0 0 0 0 0 0 0 0 0 0 0 0 0 0 0 0 0 0 0 0
0 -0 0 0 0 0 0 0 0 0 0 0 0 0 0 0 0 0 0 0 -0 -0 -0 -0 -0 -0 0 0 0 0 0 0 0 0 0 0 0 0 0 0 0 0 0 0 0 0 0 0 0 0 0 0 0 0
0 0 0 0 0 0 0 0 0 0 0 0 0 0 0 0 -0 0 0 0 -0 0 0 0 0 0 0 0 0 0 0 0 0 0 0 0 0 0 0 0 0 0 0 0 0 0 0 0 0 0 0 0 0 0
0 0 0 0 0 0 0 0 0 0 0 0 0 0 0 0 0 0 0 -0 0 0 0 0 0 0 0 0 0 0 0 0 0 0 0 0 0 0 0 0 0 0 0 0 0 0 0 0 0 0 0 0 0 0
Wind_Speed_500mb
42 44 51 57 59 58 54 52 49 42 38 34 31 29 26 17 18 16 14 14 14 9 25 31 27 16 12 7 4 4 5 5 7 6 4 5 4 2 3 3 8 10 10 7 6 5 11 5 3 6 9 19 28 34
33 38 41 46 53 53 53 49 45 47 42 38 34 31 23 20 20 19 20 19 21 21 19 34 47 44 35 28 8 5 2 2 4 7 1 3 1 3 4 3 3 1 9 8 13 10 6 3 13 26 23 29 31 25
31 24 26 36 45 47 47 42 41 45 47 44 40 33 30 26 25 23 21 22 21 21 38 22 7 4 14 33 40 13 6 3 3 3 10 4 2 6 3 7 2 4 4 3 8 4 9 18 26 24 25 23 17 20
23 22 20 17 29 36 44 50 49 51 40 40 40 37 36 31 35 28 25 26 24 9 8 9 8 4 10 11 35 37 7 5 9 4 3 4 4 9 6 3 6 8 3 4 7 17 18 19 31 26 21 15 17 25
23 18 13 11 13 22 28 35 41 49 44 43 41 43 42 41 38 33 29 30 25 15 6 19 30 19 10 7 27 26 20 16 5 3 4 4 3 5 4 3 4 10 9 7 9 14 9 31 24 19 12 16 26 38
29 28 18 10 6 12 18 22 30 35 44 43 38 41 39 48 39 33 15 30 29 26 7 7 7 5 14 22 24 22 18 10 6 4 4 4 4 5 5 3 13 17 14 15 14 16 33 27 17 13 17 25 34 40
24 24 27 22 13 5 3 8 13 24 36 46 48 46 40 50 50 30 11 7 25 22 6 10 12 5 12 31 26 23 17 6 5 5 5 4 4 12 5 5 9 16 20 19 15 16 10 11 11 18 25 33 37 35
21 24 20 21 19 13 6 6 10 10 11 25 41 44 40 44 46 22 17 17 29 14 7 3 9 2 18 12 12 15 14 11 7 4 5 5 8 2 3 12 29 25 13 9 11 12 12 16 20 28 34 34 35 34
14 17 22 23 19 12 12 11 4 9 12 14 18 23 32 22 16 20 21 17 21 12 5 6 4 6 13 10 10 12 11 3 5 6 5 10 2 3 8 32 31 16 7 7 9 17 23 30 34 35 30 30 31 31
6 10 13 16 19 20 14 7 3 14 29 39 34 10 10 12 34 26 9 4 7 11 11 9 7 5 7 8 5 9 5 5 5 6 12 5 3 0 10 15 18 16 16 14 20 30 38 37 34 29 28 27 26 26
1 3 5 7 12 14 14 13 13 18 16 15 6 8 25 36 19 8 6 2 3 7 12 11 22 4 10 6 7 8 6 6 5 5 7 1 5 7 14 11 10 10 15 24 28 31 31 29 29 27 25 24 25 19
9 4 1 3 3 6 10 10 17 14 10 9 19 35 23 8 7 6 5 6 7 7 8 11 16 19 6 7 8 9 5 3 4 11 6 5 5 15 9 1 5 3 13 23 31 34 31 24 22 20 22 24 16 12
7 15 8 3 1 4 7 7 6 4 11 11 9 7 7 7 6 9 10 6 5 9 13 14 8 16 9 6 9 4 5 5 11 5 7 5 18 16 4 4 5 7 16 23 30 33 28 19 18 19 21 13 10 9
2 9 12 7 1 5 6 5 6 1 7 4 3 4 6 4 2 4 1 5 15 11 17 22 12 8 7 6 4 6 1 4 5 5 9 7 22 16 7 7 7 9 15 20 29 30 22 15 18 20 11 7 8 11
4 6 16 13 8 2 3 5 2 4 3 3 2 2 4 3 11 25 25 18 22 11 17 17 9 6 6 7 3 5 4 2 4 7 5 17 21 21 9 3 11 11 10 18 26 28 19 15 22 12 7 6 10 13
4 4 14 17 11 7 2 2 5 7 3 5 4 4 10 6 15 18 18 9 7 12 15 7 6 5 3 6 5 6 10 8 6 7 16 19 17 14 6 7 15 8 7 15 24 25 17 14 17 8 4 7 10 17
2 2 12 16 12 8 6 6 5 4 5 4 3 3 2 2 7 14 20 20 4 11 4 5 5 5 7 5 4 5 7 6 18 22 23 10 0 7 12 14 14 10 9 14 21 21 14 12 13 4 4 11 19 21
8 4 14 16 15 11 9 4 1 2 4 5 5 3 1 5 12 15 13 21 7 9 9 4 9 4 6 7 4 6 12 26 23 19 12 5 5 5 7 10 10 8 8 13 19 20 13 10 9 6 7 17 20 23
11 7 18 17 17 6 3 3 2 4 7 8 10 13 9 12 15 17 16 15 7 1 15 10 6 4 5 8 12 29 27 22 18 15 12 9 10 7 4 3 2 4 8 13 17 17 12 8 5 4 9 21 19 25
12 9 19 19 14 2 1 2 4 6 6 4 11 14 11 13 16 17 14 7 3 5 5 5 10 9 7 9 16 24 20 18 16 14 12 12 13 14 11 2 2 4 9 13 15 17 11 7 2 6 12 16 20 27
13 23 19 17 8 3 2 3 5 6 8 8 12 13 11 17 19 16 14 13 9 7 8 14 20 19 17 18 16 22 16 17 21 25 16 11 16 19 19 13 8 9 13 14 15 14 9 2 2 9 14 16 20 27
20 17 13 11 2 4 6 5 7 10 8 11 14 7 9 6 8 11 15 18 12 20 19 25 30 31 33 37 40 39 36 36 34 37 34 26 21 27 25 19 21 19 19 16 15 13 9 4 4 13 21 19 23 33
19 13 9 6 2 4 4 5 5 5 4 5 6 5 6 4 2 6 7 7 8 4 6 14 24 32 40 43 44 48 46 43 46 41 41 37 33 30 28 29 24 22 24 19 15 13 9 7 7 18 25 23 29 44
14 5 3 2 3 5 6 4 6 6 6 5 3 6 2 4 9 5 4 5 10 6 15 19 21 26 34 35 36 39 40 52 50 49 44 43 43 38 29 28 29 29 23 18 17 15 11 11 12 23 29 26 36 54
1 3 1 3 4 3 4 6 4 4 5 3 3 4 4 4 2 3 4 8 7 13 20 18 13 16 15 19 32 40 40 51 46 43 44 43 36 31 29 28 30 28 27 25 22 18 14 16 20 25 34 32 40 60
2 3 5 3 2 5 5 5 5 6 4 4 2 7 5 4 4 6 5 6 12 17 26 23 25 18 21 20 29 29 25 43 53 57 59 52 46 40 33 31 31 31 32 28 25 21 20 23 26 29 41 37 42 64
2 4 6 9 6 6 8 11 10 3 4 4 6 7 4 4 6 5 8 11 20 32 19 11 13 23 26 30 18 17 22 29 40 42 42 46 43 44 37 32 28 25 27 25 25 22 23 29 30 36 45 41 44 68
6 5 4 4 8 9 5 6 3 3 2 3 10 3 4 4 7 7 15 31 34 36 30 24 22 23 24 17 5 4 2 18 29 27 29 39 43 43 40 33 31 26 25 25 22 22 25 30 30 46 46 45 49 72
7 7 8 14 8 6 6 4 4 3 4 5 4 4 6 9 17 35 34 24 19 18 10 17 30 30 21 18 12 11 11 11 13 19 22 29 33 32 31 28 24 21 20 24 21 22 26 28 39 45 42 46 51 74
7 9 6 5 1 1 3 4 11 20 22 19 14 14 25 23 16 27 13 18 20 24 26 26 13 6 4 14 10 13 18 21 19 18 19 21 24 24 25 26 25 23 25 21 29 32 31 36 39 38 40 48 52 78
6 4 4 1 1 4 11 15 10 14 13 8 10 13 12 10 22 35 19 13 30 25 19 19 15 10 7 9 10 9 18 20 16 16 16 16 23 28 27 26 26 24 25 32 35 35 39 41 40 42 52 52 58 77
2 3 4 4 5 8 5 6 8 8 11 14 17 13 8 9 15 25 37 21 36 14 23 29 25 24 13 8 8 8 12 15 15 14 18 22 24 27 30 31 28 30 32 33 33 39 42 43 46 52 55 56 64 69
4 1 3 3 4 3 2 4 6 7 7 6 12 17 13 8 9 33 36 29 33 21 18 24 23 25 19 13 12 14 13 14 15 24 26 26 26 29 31 33 32 33 35 37 42 43 44 44 48 52 54 56 58 58
Wind_Direction_500mb
282 271 256 250 247 247 247 248 251 251 252 254 254 255 265 272 272 277 273 250 242 251 278 276 269 241 251 260 150 337 31 343 43 74 130 211 167 248 29 147 173 170 149 189 134 198 270 342 26 209 236 305 305 307
298 278 265 249 243 243 240 241 244 241 244 250 249 246 245 258 259 270 263 260 259 252 269 276 282 273 257 244 270 301 205 171 160 94 154 117 106 51 121 285 39 266 178 180 172 215 245 287 287 280 282 296 298 306
338 314 268 250 242 242 234 232 235 240 242 245 244 242 239 249 255 259 255 254 258 283 294 286 317 206 248 248 230 217 226 197 155 131 154 152 140 128 144 246 303 327 179 147 50 299 243 263 311 302 285 293 302 316
351 350 337 277 244 242 236 229 227 233 234 241 235 238 235 242 249 249 254 248 241 260 286 301 235 244 308 270 202 206 222 167 137 136 123 125 158 187 197 198 168 209 108 166 261 279 292 294 301 302 294 300 318 322
354 7 350 322 277 252 247 240 236 228 229 232 237 237 242 243 236 246 246 239 228 224 267 295 294 276 244 156 177 186 207 187 159 137 100 215 182 119 31 69 269 196 190 153 224 240 254 308 330 319 309 315 321 326
10 9 13 17 334 251 244 239 241 236 230 234 243 249 238 245 226 222 213 233 223 226 271 306 291 236 177 175 166 171 169 178 167 165 188 210 183 131 100 213 263 264 272 267 266 310 314 315 319 319 318 322 326 326
15 15 20 26 15 346 242 232 240 237 232 234 235 240 243 225 214 185 185 209 199 186 239 291 306 173 167 181 180 174 176 165 179 177 192 194 162 170 119 207 345 358 336 334 303 309 321 337 335 326 320 323 324 331
27 33 34 38 35 25 8 321 280 288 245 233 229 230 236 224 196 155 143 151 165 181 246 229 274 312 161 155 160 177 173 181 194 188 178 178 140 159 233 257 328 343 343 30 40 40 27 352 331 325 325 327 338 346
37 40 32 33 34 23 18 14 294 217 194 191 185 173 146 144 139 143 141 159 183 214 253 209 218 208 172 146 132 146 171 118 185 187 216 147 350 218 285 307 321 349 32 71 41 10 352 340 337 333 336 343 342 339
42 40 43 40 34 35 43 41 131 103 133 137 139 106 102 93 119 111 105 147 221 220 227 237 221 253 162 155 113 121 149 154 169 234 141 82 210 269 16 54 81 86 71 50 23 360 346 343 344 350 350 343 336 339
201 22 32 34 40 43 60 73 98 139 167 173 88 83 118 135 117 71 102 120 251 264 219 226 206 221 187 134 151 188 166 158 163 218 129 118 171 207 133 93 70 54 39 25 11 359 352 346 348 347 350 347 340 357
197 208 270 4 45 47 77 110 119 102 62 128 116 132 116 126 111 129 180 182 205 247 220 196 204 204 209 169 130 173 154 123 157 146 102 170 204 203 182 200 6 32 15 5 0 360 1 359 353 352 349 342 360 29
229 209 214 214 18 106 118 125 164 55 45 97 100 130 128 163 154 185 184 202 215 216 208 175 178 162 179 170 89 111 121 179 128 75 180 211 172 176 162 271 285 330 350 348 354 356 357 357 353 353 349 5 21 93
250 202 191 200 199 167 166 140 122 148 344 77 86 96 183 163 250 252 267 321 285 238 198 176 150 169 164 96 118 104 126 95 98 144 211 202 186 184 183 72 44 324 320 334 345 354 359 359 357 358 14 21 82 118
327 213 191 197 211 193 199 216 153 143 11 16 284 193 183 233 241 277 296 262 256 271 189 159 108 121 54 99 49 108 113 178 196 209 217 179 191 191 169 57 332 314 317 329 344 356 359 355 350 18 28 66 122 133
324 195 192 196 192 173 127 182 155 132 7 322 274 10 320 74 358 347 19 44 360 186 151 85 90 94 98 122 138 185 151 197 219 203 158 159 166 176 197 291 335 320 307 334 346 354 354 349 356 50 31 131 141 145
142 162 180 183 190 213 180 147 136 181 212 229 274 239 347 125 275 313 336 1 205 341 83 129 115 173 119 97 124 176 191 200 151 142 148 137 13 258 252 271 303 305 299 336 348 354 357 352 359 64 121 145 143 146
135 71 157 163 163 140 141 149 46 311 279 258 267 311 285 274 288 293 326 351 24 191 159 117 124 88 148 148 245 214 147 139 145 147 167 200 329 309 305 299 295 254 275 332 350 0 11 349 355 90 133 150 146 150
150 151 166 161 139 117 139 183 293 290 268 285 269 273 278 283 277 281 304 336 347 59 134 140 102 166 214 212 178 161 163 167 181 198 208 245 280 258 280 346 119 226 277 323 349 358 2 342 357 115 139 151 153 156
160 156 167 166 161 93 111 175 238 274 272 298 279 278 278 258 265 260 258 275 257 194 161 158 189 196 187 190 185 186 180 188 193 192 216 241 255 232 213 181 10 292 293 306 336 350 354 358 359 155 150 155 166 167
164 144 155 172 183 324 275 243 247 260 290 267 278 287 273 247 244 230 226 226 225 208 221 222 230 240 252 259 221 192 228 243 239 226 236 268 229 222 212 243 273 297 299 295 312 335 332 312 221 178 170 155 165 165
164 146 158 187 260 278 272 241 260 295 265 271 290 248 260 252 239 226 227 211 219 239 239 248 254 256 254 249 244 245 256 258 255 238 231 240 235 219 230 255 275 267 290 285 288 315 317 226 204 183 176 164 166 160
134 149 154 177 209 264 286 268 263 256 261 275 280 262 240 249 277 294 228 212 182 138 248 267 262 257 254 252 250 249 246 244 243 233 231 234 248 252 247 254 265 276 273 272 263 287 285 224 208 181 177 166 168 161
140 148 152 175 237 274 297 258 245 272 273 273 258 278 336 337 336 356 297 280 201 301 322 303 301 288 254 244 240 241 242 236 235 235 232 238 244 244 243 248 250 259 269 247 245 266 253 215 205 184 180 171 168 166
181 172 205 266 239 281 289 312 264 282 256 251 281 287 332 315 276 249 248 271 232 312 319 322 299 295 301 278 254 251 244 229 226 221 218 225 234 237 240 254 245 250 247 235 234 241 229 212 204 190 184 176 172 171
49 203 184 223 242 195 227 258 221 228 258 273 274 325 309 293 234 240 235 256 304 313 310 294 291 279 298 311 296 257 244 224 225 232 231 233 240 239 242 247 236 244 241 231 236 236 229 208 203 192 183 179 176 175
348 263 237 225 242 264 286 271 263 229 271 329 354 330 305 272 258 263 304 305 318 332 325 306 292 292 301 302 298 274 230 210 208 216 221 222 227 231 239 238 249 258 234 230 236 230 223 201 201 193 184 182 181 179
257 278 233 224 222 226 226 270 286 317 51 355 333 279 251 238 253 294 316 321 311 306 293 292 292 300 299 293 244 70 327 212 213 215 207 210 216 222 223 230 214 211 214 225 220 215 204 200 201 186 184 183 181 181
247 232 245 277 247 203 210 282 320 302 259 283 233 243 256 259 285 311 318 330 344 320 295 279 295 308 268 256 239 218 176 165 167 166 178 183 183 184 186 191 206 216 224 206 201 194 193 197 185 184 183 183 181 181
256 210 234 261 128 177 239 256 277 286 282 267 250 265 278 294 30 23 14 350 357 2 317 327 344 355 194 206 206 194 204 204 206 204 211 207 196 197 203 209 226 216 192 205 192 183 185 176 177 181 181 178 181 182
267 240 209 14 312 275 300 302 298 307 305 291 262 256 288 340 34 47 45 8 5 24 39 29 37 48 74 128 153 167 180 182 192 202 209 193 185 191 203 200 186 186 186 180 181 183 174 173 176 174 172 174 174 181
183 118 65 351 317 316 332 312 333 357 20 23 25 28 38 26 7 21 21 18 3 41 63 59 56 48 53 105 118 147 167 176 191 191 177 177 177 176 175 170 171 178 181 182 182 173 172 171 169 169 168 167 172 180
110 153 275 269 270 289 5 1 354 318 340 3 26 28 36 34 23 11 17 13 17 57 52 53 46 28 48 71 98 139 123 138 143 148 158 164 168 165 164 166 168 170 173 170 167 167 167 166 167 168 170 170 172 178
Wind_Speed_850mb
42 44 51 57 59 58 54 52 49 42 38 34 31 29 26 17 18 16 14 14 14 9 25 31 27 16 12 7 4 4 5 5 7 6 4 5 4 2 3 3 8 10 10 7 6 5 11 5 3 6 9 19 28 34
33 38 41 46 53 53 53 49 45 47 42 38 34 31 23 20 20 19 20 19 21 21 19 34 47 44 35 28 8 5 2 2 4 7 1 3 1 3 4 3 3 1 9 8 13 10 6 3 13 26 23 29 31 25
31 24 26 36 45 47 47 42 41 45 47 44 40 33 30 26 25 23 21 22 21 21 38 22 7 4 14 33 40 13 6 3 3 3 10 4 2 6 3 7 2 4 4 3 8 4 9 18 26 24 25 23 17 20
23 22 20 17 29 36 44 50 49 51 40 40 40 37 36 31 35 28 25 26 24 9 8 9 8 4 10 11 35 37 7 5 9 4 3 4 4 9 6 3 6 8 3 4 7 17 18 19 31 26 21 15 17 25
23 18 13 11 13 22 28 35 41 49 44 43 41 43 42 41 38 33 29 30 25 15 6 19 30 19 10 7 27 26 20 16 5 3 4 4 3 5 4 3 4 10 9 7 9 14 9 31 24 19 12 16 26 38
29 28 18 10 6 12 18 22 30 35 44 43 38 41 39 48 39 33 15 30 29 26 7 7 7 5 14 22 24 22 18 10 6 4 4 4 4 5 5 3 13 17 14 15 14 16 33 27 17 13 17 25 34 40
24 24 27 22 13 5 3 8 13 24 36 46 48 46 40 50 50 30 11 7 25 22 6 10 12 5 12 31 26 23 17 6 5 5 5 4 4 12 5 5 9 16 20 19 15 16 10 11 11 18 25 33 37 35
21 24 20 21 19 13 6 6 10 10 11 25 41 44 40 44 46 22 17 17 29 14 7 3 9 2 18 12 12 15 14 11 7 4 5 5 8 2 3 12 29 25 13 9 11 12 12 16 20 28 34 34 35 34
14 17 22 23 19 12 12 11 4 9 12 14 18 23 32 22 16 20 21 17 21 12 5 6 4 6 13 10 10 12 11 3 5 6 5 10 2 3 8 32 31 16 7 7 9 17 23 30 34 35 30 30 31 31
6 10 13 16 19 20 14 7 3 14 29 39 34 10 10 12 34 26 9 4 7 11 11 9 7 5 7 8 5 9 5 5 5 6 12 5 3 0 10 15 18 16 16 14 20 30 38 37 34 29 28 27 26 26
1 3 5 7 12 14 14 13 13 18 16 15 6 8 25 36 19 8 6 2 3 7 12 11 22 4 10 6 7 8 6 6 5 5 7 1 5 7 14 11 10 10 15 24 28 31 31 29 29 27 25 24 25 19
9 4 1 3 3 6 10 10 17 14 10 9 19 35 23 8 7 6 5 6 7 7 8 11 16 19 6 7 8 9 5 3 4 11 6 5 5 15 9 1 5 3 13 23 31 34 31 24 22 20 22 24 16 12
7 15 8 3 1 4 7 7 6 4 11 11 9 7 7 7 6 9 10 6 5 9 13 14 8 16 9 6 9 4 5 5 11 5 7 5 18 16 4 4 5 7 16 23 30 33 28 19 18 19 21 13 10 9
2 9 12 7 1 5 6 5 6 1 7 4 3 4 6 4 2 4 1 5 15 11 17 22 12 8 7 6 4 6 1 4 5 5 9 7 22 16 7 7 7 9 15 20 29 30 22 15 18 20 11 7 8 11
4 6 16 13 8 2 3 5 2 4 3 3 2 2 4 3 11 25 25 18 22 11 17 17 9 6 6 7 3 5 4 2 4 7 5 17 21 21 9 3 11 11 10 18 26 28 19 15 22 12 7 6 10 13
4 4 14 17 11 7 2 2 5 7 3 5 4 4 10 6 15 18 18 9 7 12 15 7 6 5 3 6 5 6 10 8 6 7 16 19 17 14 6 7 15 8 7 15 24 25 17 14 17 8 4 7 10 17
2 2 12 16 12 8 6 6 5 4 5 4 3 3 2 2 7 14 20 20 4 11 4 5 5 5 7 5 4 5 7 6 18 22 23 10 0 7 12 14 14 10 9 14 21 21 14 12 13 4 4 11 19 21
8 4 14 16 15 11 9 4 1 2 4 5 5 3 1 5 12 15 13 21 7 9 9 4 9 4 6 7 4 6 12 26 23 19 12 5 5 5 7 10 10 8 8 13 19 20 13 10 9 6 7 17 20 23
11 7 18 17 17 6 3 3 2 4 7 8 10 13 9 12 15 17 16 15 7 1 15 10 6 4 5 8 12 29 27 22 18 15 12 9 10 7 4 3 2 4 8 13 17 17 12 8 5 4 9 21 19 25
12 9 19 19 14 2 1 2 4 6 6 4 11 14 11 13 16 17 14 7 3 5 5 5 10 9 7 9 16 24 20 18 16 14 12 12 13 14 11 2 2 4 9 13 15 17 11 7 2 6 12 16 20 27
13 23 19 17 8 3 2 3 5 6 8 8 12 13 11 17 19 16 14 13 9 7 8 14 20 19 17 18 16 22 16 17 21 25 16 11 16 19 19 13 8 9 13 14 15 14 9 2 2 9 14 16 20 27
20 17 13 11 2 4 6 5 7 10 8 11 14 7 9 6 8 11 15 18 12 20 19 25 30 31 33 37 40 39 36 36 34 37 34 26 21 27 25 19 21 19 19 16 15 13 9 4 4 13 21 19 23 33
19 13 9 6 2 4 4 5 5 5 4 5 6 5 6 4 2 6 7 7 8 4 6 14 24 32 40 43 44 48 46 43 46 41 41 37 33 30 28 29 24 22 24 19 15 13 9 7 7 18 25 23 29 44
14 5 3 2 3 5 6 4 6 6 6 5 3 6 2 4 9 5 4 5 10 6 15 19 21 26 34 35 36 39 40 52 50 49 44 43 43 38 29 28 29 29 23 18 17 15 11 11 12 23 29 26 36 54
1 3 1 3 4 3 4 6 4 4 5 3 3 4 4 4 2 3 4 8 7 13 20 18 13 16 15 19 32 40 40 51 46 43 44 43 36 31 29 28 30 28 27 25 22 18 14 16 20 25 34 32 40 60
2 3 5 3 2 5 5 5 5 6 4 4 2 7 5 4 4 6 5 6 12 17 26 23 25 18 21 20 29 29 25 43 53 57 59 52 46 40 33 31 31 31 32 28 25 21 20 23 26 29 41 37 42 64
2 4 6 9 6 6 8 11 10 3 4 4 6 7 4 4 6 5 8 11 20 32 19 11 13 23 26 30 18 17 22 29 40 42 42 46 43 44 37 32 28 25 27 25 25 22 23 29 30 36 45 41 44 68
6 5 4 4 8 9 5 6 3 3 2 3 10 3 4 4 7 7 15 31 34 36 30 24 22 23 24 17 5 4 2 18 29 27 29 39 43 43 40 33 31 26 25 25 22 22 25 30 30 46 46 45 49 72
7 7 8 14 8 6 6 4 4 3 4 5 4 4 6 9 17 35 34 24 19 18 10 17 30 30 21 18 12 11 11 11 13 19 22 29 33 32 31 28 24 21 20 24 21 22 26 28 39 45 42 46 51 74
7 9 6 5 1 1 3 4 11 20 22 19 14 14 25 23 16 27 13 18 20 24 26 26 13 6 4 14 10 13 18 21 19 18 19 21 24 24 25 26 25 23 25 21 29 32 31 36 39 38 40 48 52 78
6 4 4 1 1 4 11 15 10 14 13 8 10 13 12 10 22 35 19 13 30 25 19 19 15 10 7 9 10 9 18 20 16 16 16 16 23 28 27 26 26 24 25 32 35 35 39 41 40 42 52 52 58 77
2 3 4 4 5 8 5 6 8 8 11 14 17 13 8 9 15 25 37 21 36 14 23 29 25 24 13 8 8 8 12 15 15 14 18 22 24 27 30 31 28 30 32 33 33 39 42 43 46 52 55 56 64 69
4 1 3 3 4 3 2 4 6 7 7 6 12 17 13 8 9 33 36 29 33 21 18 24 23 25 19 13 12 14 13 14 15 24 26 26 26 29 31 33 32 33 35 37 42 43 44 44 48 52 54 56 58 58
Wind_Direction_850mb
282 271 256 250 247 247 247 248 251 251 252 254 254 255 265 272 272 277 273 250 242 251 278 276 269 241 251 260 150 337 31 343 43 74 130 211 167 248 29 147 173 170 149 189 134 198 270 342 26 209 236 305 305 307
298 278 265 249 243 243 240 241 244 241 244 250 249 246 245 258 259 270 263 260 259 252 269 276 282 273 257 244 270 301 205 171 160 94 154 117 106 51 121 285 39 266 178 180 172 215 245 287 287 280 282 296 298 306
338 314 268 250 242 242 234 232 235 240 242 245 244 242 239 249 255 259 255 254 258 283 294 286 317 206 248 248 230 217 226 197 155 131 154 152 140 128 144 246 303 327 179 147 50 299 243 263 311 302 285 293 302 316
351 350 337 277 244 242 236 229 227 233 234 241 235 238 235 242 249 249 254 248 241 260 286 301 235 244 308 270 202 206 222 167 137 136 123 125 158 187 197 198 168 209 108 166 261 279 292 294 301 302 294 300 318 322
354 7 350 322 277 252 247 240 236 228 229 232 237 237 242 243 236 246 246 239 228 224 267 295 294 276 244 156 177 186 207 187 159 137 100 215 182 119 31 69 269 196 190 153 224 240 254 308 330 319 309 315 321 326
10 9 13 17 334 251 244 239 241 236 230 234 243 249 238 245 226 222 213 233 223 226 271 306 291 236 177 175 166 171 169 178 167 165 188 210 183 131 100 213 263 264 272 267 266 310 314 315 319 319 318 322 326 326
15 15 20 26 15 346 242 232 240 237 232 234 235 240 243 225 214 185 185 209 199 186 239 291 306 173 167 181 180 174 176 165 179 177 192 194 162 170 119 207 345 358 336 334 303 309 321 337 335 326 320 323 324 331
27 33 34 38 35 25 8 321 280 288 245 233 229 230 236 224 196 155 143 151 165 181 246 229 274 312 161 155 160 177 173 181 194 188 178 178 140 159 233 257 328 343 343 30 40 40 27 352 331 325 325 327 338 346
37 40 32 33 34 23 18 14 294 217 194 191 185 173 146 144 139 143 141 159 183 214 253 209 218 208 172 146 132 146 171 118 185 187 216 147 350 218 285 307 321 349 32 71 41 10 352 340 337 333 336 343 342 339
42 40 43 40 34 35 43 41 131 103 133 137 139 106 102 93 119 111 105 147 221 220 227 237 221 253 162 155 113 121 149 154 169 234 141 82 210 269 16 54 81 86 71 50 23 360 346 343 344 350 350 343 336 339
201 22 32 34 40 43 60 73 98 139 167 173 88 83 118 135 117 71 102 120 251 264 219 226 206 221 187 134 151 188 166 158 163 218 129 118 171 207 133 93 70 54 39 25 11 359 352 346 348 347 350 347 340 357
197 208 270 4 45 47 77 110 119 102 62 128 116 132 116 126 111 129 180 182 205 247 220 196 204 204 209 169 130 173 154 123 157 146 102 170 204 203 182 200 6 32 15 5 0 360 1 359 353 352 349 342 360 29
229 209 214 214 18 106 118 125 164 55 45 97 100 130 128 163 154 185 184 202 215 216 208 175 178 162 179 170 89 111 121 179 128 75 180 211 172 176 162 271 285 330 350 348 354 356 357 357 353 353 349 5 21 93
250 202 191 200 199 167 166 140 122 148 344 77 86 96 183 163 250 252 267 321 285 238 198 176 150 169 164 96 118 104 126 95 98 144 211 202 186 184 183 72 44 324 320 334 345 354 359 359 357 358 14 21 82 118
327 213 191 197 211 193 199 216 153 143 11 16 284 193 183 233 241 277 296 262 256 271 189 159 108 121 54 99 49 108 113 178 196 209 217 179 191 191 169 57 332 314 317 329 344 356 359 355 350 18 28 66 122 133
324 195 192 196 192 173 127 182 155 132 7 322 274 10 320 74 358 347 19 44 360 186 151 85 90 94 98 122 138 185 151 197 219 203 158 159 166 176 197 291 335 320 307 334 346 354 354 349 356 50 31 131 141 145
142 162 180 183 190 213 180 147 136 181 212 229 274 239 347 125 275 313 336 1 205 341 83 129 115 173 119 97 124 176 191 200 151 142 148 137 13 258 252 271 303 305 299 336 348 354 357 352 359 64 121 145 143 146
135 71 157 163 163 140 141 149 46 311 279 258 267 311 285 274 288 293 326 351 24 191 159 117 124 88 148 148 245 214 147 139 145 147 167 200 329 309 305 299 295 254 275 332 350 0 11 349 355 90 133 150 146 150
150 151 166 161 139 117 139 183 293 290 268 285 269 273 278 283 277 281 304 336 347 59 134 140 102 166 214 212 178 161 163 167 181 198 208 245 280 258 280 346 119 226 277 323 349 358 2 342 357 115 139 151 153 156
160 156 167 166 161 93 111 175 238 274 272 298 279 278 278 258 265 260 258 275 257 194 161 158 189 196 187 190 185 186 180 188 193 192 216 241 255 232 213 181 10 292 293 306 336 350 354 358 359 155 150 155 166 167
164 144 155 172 183 324 275 243 247 260 290 267 278 287 273 247 244 230 226 226 225 208 221 222 230 240 252 259 221 192 228 243 239 226 236 268 229 222 212 243 273 297 299 295 312 335 332 312 221 178 170 155 165 165
164 146 158 187 260 278 272 241 260 295 265 271 290 248 260 252 239 226 227 211 219 239 239 248 254 256 254 249 244 245 256 258 255 238 231 240 235 219 230 255 275 267 290 285 288 315 317 226 204 183 176 164 166 160
134 149 154 177 209 264 286 268 263 256 261 275 280 262 240 249 277 294 228 212 182 138 248 267 262 257 254 252 250 249 246 244 243 233 231 234 248 252 247 254 265 276 273 272 263 287 285 224 208 181 177 166 168 161
140 148 152 175 237 274 297 258 245 272 273 273 258 278 336 337 336 356 297 280 201 301 322 303 301 288 254 244 240 241 242 236 235 235 232 238 244 244 243 248 250 259 269 247 245 266 253 215 205 184 180 171 168 166
181 172 205 266 239 281 289 312 264 282 256 251 281 287 332 315 276 249 248 271 232 312 319 322 299 295 301 278 254 251 244 229 226 221 218 225 234 237 240 254 245 250 247 235 234 241 229 212 204 190 184 176 172 171
49 203 184 223 242 195 227 258 221 228 258 273 274 325 309 293 234 240 235 256 304 313 310 294 291 279 298 311 296 257 244 224 225 232 231 233 240 239 242 247 236 244 241 231 236 236 229 208 203 192 183 179 176 175
348 263 237 225 242 264 286 271 263 229 271 329 354 330 305 272 258 263 304 305 318 332 325 306 292 292 301 302 298 274 230 210 208 216 221 222 227 231 239 238 249 258 234 230 236 230 223 201 201 193 184 182 181 179
257 278 233 224 222 226 226 270 286 317 51 355 333 279 251 238 253 294 316 321 311 306 293 292 292 300 299 293 244 70 327 212 213 215 207 210 216 222 223 230 214 211 214 225 220 215 204 200 201 186 184 183 181 181
247 232 245 277 247 203 210 282 320 302 259 283 233 243 256 259 285 311 318 330 344 320 295 279 295 308 268 256 239 218 176 165 167 166 178 183 183 184 186 191 206 216 224 206 201 194 193 197 185 184 183 183 181 181
256 210 234 261 128 177 239 256 277 286 282 267 250 265 278 294 30 23 14 350 357 2 317 327 344 355 194 206 206 194 204 204 206 204 211 207 196 197 203 209 226 216 192 205 192 183 185 176 177 181 181 178 181 182
267 240 209 14 312 275 300 302 298 307 305 291 262 256 288 340 34 47 45 8 5 24 39 29 37 48 74 128 153 167 180 182 192 202 209 193 185 191 203 200 186 186 186 180 181 183 174 173 176 174 172 174 174 181
183 118 65 351 317 316 332 312 333 357 20 23 25 28 38 26 7 21 21 18 3 41 63 59 56 48 53 105 118 147 167 176 191 191 177 177 177 176 175 170 171 178 181 182 182 173 172 171 169 169 168 167 172 180
110 153 275 269 270 289 5 1 354 318 340 3 26 28 36 34 23 11 17 13 17 57 52 53 46 28 48 71 98 139 123 138 143 148 158 164 168 165 164 166 168 170 173 170 167 167 167 166 167 168 170 170 172 178